Wind_Speed
43 44 46 47 48 49 48 47 46 46 45 44 44 44 45 46 47 47 47 46 44 43 43 43 43 43 45 45 47 48 48 48 44 40 41 40 42 46 46 49 48 46 45
40 40 42 43 44 45 44 43 44 44 42 45 45 45 46 47 47 47 46 44 43 43 44 45 45 48 49 51 53 54 55 56 56 54 51 47 45 42 44 48 45 44 46
41 43 44 44 45 45 44 44 44 45 46 46 46 47 47 47 46 44 42 42 41 41 44 45 49 53 55 56 56 55 54 53 54 59 60 57 54 52 49 46 43 41 43
37 39 41 42 41 40 41 42 43 44 45 44 44 44 45 45 43 41 40 39 40 42 45 50 53 54 56 56 55 53 52 52 50 51 53 54 59 59 57 51 49 44 40
35 39 39 39 40 41 41 40 41 41 41 42 41 41 42 42 40 38 37 40 42 46 48 50 52 53 52 49 51 55 57 58 56 59 60 62 62 62 64 60 56 54 47
33 33 35 38 39 41 41 41 41 42 43 43 40 38 40 39 37 36 38 40 43 45 47 48 46 49 52 57 60 60 60 59 62 61 57 59 59 61 67 68 64 60 52
37 36 36 35 35 35 35 35 35 36 37 38 36 37 38 34 34 37 39 40 42 41 39 42 44 49 51 54 57 55 53 54 55 54 53 55 54 55 59 68 69 66 61
38 38 38 38 38 38 38 37 36 36 34 32 33 35 33 33 33 36 38 38 37 36 40 39 45 48 52 55 52 50 52 51 51 49 47 45 46 48 49 56 70 70 67
38 38 39 39 39 39 39 39 39 35 31 31 30 30 29 31 32 35 36 36 32 35 39 45 46 49 54 43 43 53 53 45 46 45 40 40 39 40 42 48 62 70 70
38 38 38 39 39 40 40 39 37 31 30 28 28 27 25 28 32 35 33 31 31 35 36 42 46 44 30 39 39 42 38 38 41 42 37 34 34 31 34 40 53 65 69
38 40 39 39 38 37 36 35 31 29 27 25 27 25 24 28 34 31 28 24 26 27 32 40 35 30 30 35 38 38 36 38 38 38 35 34 33 26 28 34 42 58 62
32 34 36 38 37 33 31 29 27 24 25 26 30 29 25 30 31 28 26 27 25 28 37 39 34 27 29 30 35 32 33 34 32 30 29 30 34 32 31 30 36 51 58
35 34 34 33 32 30 26 24 21 23 27 27 28 23 25 28 26 26 24 23 22 30 36 40 38 32 28 25 33 32 32 37 30 24 26 29 30 31 26 33 35 45 53
39 37 34 32 28 24 21 20 23 24 21 22 14 19 23 24 24 23 23 22 24 33 33 37 29 25 25 26 30 30 31 32 21 19 13 16 19 23 24 28 33 44 49
34 34 32 26 22 20 18 17 16 16 18 14 12 19 20 20 20 20 20 21 27 33 33 32 27 27 25 26 27 25 30 27 17 17 18 8 3 6 16 23 33 54 50
28 28 22 19 18 17 16 18 18 18 15 12 15 17 19 22 20 22 24 22 24 27 24 23 27 26 22 22 23 21 24 21 12 8 17 11 11 13 15 22 30 49 55
19 16 14 15 15 16 18 20 18 13 10 16 16 17 19 20 19 20 22 23 22 24 22 21 26 24 25 21 21 22 25 21 11 9 8 5 7 5 13 23 35 32 42
13 11 12 11 13 17 13 8 6 6 9 12 14 13 14 18 19 19 21 20 18 18 18 20 22 22 26 22 20 19 19 20 17 9 7 7 10 11 12 20 26 30 34
6 7 6 5 6 7 3 6 8 9 9 10 12 14 14 16 17 16 20 20 19 17 18 19 20 19 19 21 29 24 17 15 16 9 4 5 8 10 17 17 20 28 34
4 4 2 4 4 4 7 9 10 11 12 14 14 15 17 16 16 17 17 18 17 16 15 16 15 15 17 18 23 22 21 14 13 11 3 7 8 8 14 24 23 27 32
2 4 4 5 7 8 10 11 13 13 14 16 18 18 18 18 17 16 16 17 17 16 14 16 15 13 14 13 18 23 16 18 7 13 10 5 7 12 20 21 22 24 33
7 8 8 9 10 11 13 14 15 16 17 18 19 20 21 22 21 18 17 16 18 17 15 14 14 12 10 11 12 15 15 12 13 10 7 8 12 24 22 21 22 24 40
10 10 11 12 13 15 16 17 18 19 20 20 21 21 21 21 22 21 20 18 17 18 17 15 15 14 9 9 6 10 12 8 8 15 12 10 11 13 14 17 19 20 16
11 12 13 14 15 16 17 18 18 19 20 21 21 22 22 22 22 22 22 21 18 17 18 17 17 16 14 7 6 9 8 13 8 2 4 7 9 20 17 24 28 21 10
14 15 16 17 17 18 19 20 21 22 23 24 25 25 26 26 26 26 25 25 24 20 19 19 18 18 18 15 10 9 5 4 8 10 11 9 13 17 24 25 21 20 15
17 17 18 20 21 22 24 25 26 26 27 28 29 29 30 30 30 29 29 28 27 27 25 22 21 20 20 22 18 15 14 10 9 7 1 9 8 12 11 12 23 24 17
Wind_Direction
261 263 265 268 271 273 274 274 274 274 272 269 275 279 281 283 285 286 286 288 290 288 284 285 287 286 288 288 287 287 286 284 280 274 269 264 259 255 254 251 246 244 242
259 263 265 268 270 273 274 274 273 275 272 272 277 280 282 285 288 288 288 289 287 286 283 288 287 290 289 287 286 285 284 284 281 277 270 265 261 258 254 249 246 244 246
256 259 263 267 269 271 275 276 276 275 273 276 280 282 284 288 290 290 290 290 288 287 288 289 289 289 290 289 286 284 282 281 280 279 277 271 264 258 254 251 246 241 239
267 266 267 269 273 275 275 275 274 275 276 279 280 283 288 291 292 291 289 289 291 292 291 291 291 291 289 287 285 283 285 283 278 281 280 277 269 259 252 250 246 238 234
279 276 276 274 272 272 274 276 277 277 278 280 281 285 288 291 290 288 289 291 293 294 294 292 292 292 292 289 283 280 279 276 274 276 279 276 278 269 253 245 243 242 236
282 282 278 275 274 273 274 275 276 278 279 281 282 283 287 289 287 288 290 292 294 292 294 298 298 293 290 290 290 288 285 280 279 278 275 272 272 265 253 241 235 239 236
277 279 281 283 283 283 282 282 284 285 285 282 280 281 287 287 288 290 292 293 294 298 298 297 300 300 302 300 296 293 294 290 281 280 273 274 275 269 254 239 230 230 232
276 277 278 279 280 281 284 287 288 287 286 281 277 282 286 286 288 292 292 294 298 298 300 300 304 305 303 306 301 299 295 291 287 281 273 275 272 265 255 239 229 224 227
276 276 277 278 280 282 282 283 284 285 284 281 278 281 282 287 295 292 294 299 295 301 302 300 305 304 310 313 304 301 300 296 290 284 276 277 270 265 255 241 227 222 223
277 277 277 277 278 279 279 279 280 278 278 280 279 277 287 295 292 293 297 300 303 305 304 311 311 311 309 314 312 313 303 289 286 285 276 273 263 263 255 241 228 222 221
282 280 278 277 276 277 279 277 274 274 275 276 273 278 289 291 293 295 296 307 313 310 319 319 311 312 322 315 314 318 313 305 291 288 271 271 259 257 252 242 230 221 219
290 286 281 276 276 277 276 273 274 273 273 271 268 272 283 288 298 298 291 299 317 325 328 323 312 316 315 319 320 331 332 322 309 298 272 265 263 256 248 244 229 218 216
285 287 289 286 277 273 275 275 268 270 273 270 275 280 285 293 295 299 295 299 313 321 324 327 308 308 319 325 329 330 341 342 336 303 278 272 272 247 249 235 226 214 202
285 286 289 287 275 270 267 265 270 271 265 278 267 279 290 301 296 303 294 305 316 310 315 325 323 322 334 331 335 340 343 347 355 1 320 283 261 244 234 228 211 195 188
284 281 283 277 266 260 262 269 270 276 271 260 269 277 291 302 297 298 297 304 294 300 317 331 331 326 329 323 328 342 352 352 5 22 9 7 351 184 200 195 196 186 181
282 275 266 257 256 262 266 271 278 262 266 275 269 274 289 302 304 295 298 301 309 319 321 328 333 332 342 351 351 348 354 356 350 48 35 27 81 122 141 158 171 178 184
276 260 255 254 257 262 266 268 263 268 271 282 279 280 282 284 295 304 302 303 307 315 316 335 353 357 356 356 5 4 357 350 340 336 333 53 111 108 141 155 162 162 180
274 260 251 248 248 255 248 248 256 254 249 267 282 286 292 292 293 300 310 314 318 310 324 335 347 8 13 19 10 1 357 6 3 354 19 103 131 132 129 151 165 179 182
246 235 216 199 220 216 236 279 283 287 290 289 294 300 301 298 300 302 301 315 320 318 323 333 347 8 13 12 9 18 16 18 24 13 22 129 156 157 153 152 166 176 183
37 18 57 60 318 301 288 289 290 291 295 301 303 302 303 304 305 306 302 303 314 316 314 321 341 355 7 13 21 19 15 34 10 32 86 124 159 141 131 147 160 174 186
333 310 312 315 308 298 288 283 286 292 298 300 301 303 303 304 305 306 306 304 301 311 312 306 317 337 345 16 3 17 24 45 47 49 50 135 167 150 143 139 147 155 159
318 311 304 297 295 294 292 293 295 297 297 297 298 299 301 302 302 301 305 305 302 299 301 296 302 312 333 343 350 17 28 27 50 82 33 25 94 131 135 126 129 142 164
298 297 296 294 291 292 292 292 291 292 294 294 292 292 292 293 295 296 299 296 293 293 293 290 284 288 296 334 319 18 27 20 72 76 56 119 93 123 126 143 152 145 157
301 300 299 297 297 296 294 294 296 295 295 294 294 293 292 292 292 292 293 294 290 287 288 287 280 275 275 256 266 301 58 61 104 321 16 59 130 125 131 144 154 170 162
309 307 304 302 300 298 296 296 296 295 294 293 293 293 292 290 288 287 286 285 286 282 277 278 277 272 268 263 237 240 225 112 120 108 75 112 136 163 168 172 181 159 180
307 306 304 302 301 300 299 298 298 297 297 296 295 294 293 292 292 290 288 286 283 280 276 268 266 266 261 258 250 230 220 213 183 165 358 112 98 135 145 167 186 197 185
Height
5745 5745 5745 5744 5743 5742 5740 5739 5738 5737 5736 5734 5732 5730 5728 5725 5722 5719 5715 5713 5710 5707 5705 5703 5700 5697 5694 5691 5687 5684 5682 5681 5679 5683 5686 5685 5685 5686 5686 5688 5689 5690 5694
5735 5734 5734 5733 5732 5731 5730 5729 5728 5727 5726 5724 5722 5720 5716 5713 5710 5707 5704 5701 5698 5697 5693 5691 5688 5685 5682 5678 5675 5672 5668 5665 5663 5665 5669 5671 5672 5672 5674 5676 5677 5679 5681
5723 5723 5723 5723 5722 5720 5719 5718 5717 5716 5714 5712 5710 5707 5705 5701 5699 5696 5693 5690 5688 5684 5682 5679 5675 5671 5667 5662 5659 5656 5653 5650 5648 5645 5645 5649 5655 5657 5660 5663 5664 5666 5671
5714 5713 5713 5712 5711 5710 5708 5707 5705 5703 5702 5701 5699 5696 5694 5691 5688 5685 5683 5680 5677 5674 5670 5667 5662 5657 5651 5646 5642 5639 5636 5633 5630 5629 5627 5626 5628 5634 5639 5644 5648 5654 5659
5704 5703 5702 5701 5701 5700 5699 5698 5696 5694 5692 5690 5688 5687 5685 5681 5678 5676 5674 5672 5668 5664 5659 5653 5647 5641 5637 5632 5628 5623 5619 5615 5612 5609 5608 5607 5608 5609 5613 5620 5629 5636 5644
5695 5693 5692 5691 5691 5690 5690 5688 5686 5684 5682 5680 5678 5678 5674 5671 5669 5667 5665 5662 5657 5652 5646 5640 5634 5628 5622 5616 5610 5606 5601 5597 5594 5590 5586 5584 5583 5585 5587 5596 5606 5615 5629
5686 5685 5683 5682 5680 5679 5678 5677 5675 5673 5671 5669 5668 5667 5664 5662 5660 5658 5656 5651 5646 5641 5635 5630 5624 5616 5608 5600 5592 5585 5580 5574 5570 5567 5565 5562 5562 5559 5562 5572 5583 5595 5610
5676 5675 5674 5672 5671 5670 5668 5667 5665 5664 5662 5660 5658 5657 5655 5653 5652 5650 5646 5642 5637 5631 5625 5619 5613 5604 5594 5586 5578 5572 5565 5556 5549 5546 5545 5542 5542 5540 5541 5547 5561 5575 5589
5666 5665 5663 5662 5661 5659 5658 5657 5656 5655 5653 5651 5650 5649 5648 5647 5644 5640 5637 5633 5628 5622 5616 5609 5600 5591 5582 5574 5568 5558 5549 5542 5534 5530 5529 5527 5525 5525 5526 5531 5543 5556 5569
5656 5654 5653 5651 5650 5650 5649 5648 5647 5646 5645 5644 5642 5642 5642 5640 5635 5632 5629 5625 5620 5615 5607 5598 5589 5581 5571 5564 5555 5545 5535 5528 5519 5515 5514 5515 5515 5514 5513 5518 5526 5539 5553
5645 5644 5643 5642 5641 5640 5639 5638 5638 5637 5637 5637 5635 5636 5635 5632 5628 5624 5622 5618 5614 5606 5599 5590 5581 5571 5563 5556 5547 5536 5526 5516 5508 5502 5500 5502 5504 5505 5505 5508 5514 5526 5541
5637 5635 5633 5632 5631 5631 5630 5629 5630 5630 5629 5629 5627 5628 5627 5625 5622 5618 5615 5611 5606 5599 5592 5582 5575 5565 5557 5548 5540 5529 5518 5506 5495 5489 5488 5490 5492 5495 5498 5499 5504 5514 5529
5628 5626 5624 5623 5622 5622 5622 5622 5623 5622 5621 5621 5620 5621 5620 5618 5615 5612 5608 5605 5600 5594 5587 5578 5567 5560 5550 5540 5532 5523 5512 5499 5487 5480 5478 5478 5480 5482 5487 5490 5496 5504 5518
5617 5615 5615 5613 5613 5614 5614 5615 5615 5614 5614 5615 5615 5615 5613 5611 5608 5606 5602 5598 5595 5591 5583 5575 5563 5553 5542 5535 5528 5519 5508 5497 5486 5478 5472 5469 5468 5471 5476 5481 5489 5498 5514
5607 5606 5605 5605 5605 5606 5608 5609 5608 5608 5607 5609 5608 5609 5607 5606 5603 5600 5598 5595 5592 5587 5579 5569 5559 5549 5540 5532 5525 5517 5507 5497 5488 5482 5475 5470 5466 5465 5470 5477 5485 5498 5512
5598 5597 5597 5597 5598 5599 5600 5602 5602 5602 5601 5603 5603 5603 5601 5599 5598 5595 5592 5590 5586 5580 5574 5565 5555 5547 5537 5528 5521 5514 5506 5499 5493 5485 5482 5477 5475 5475 5477 5482 5488 5499 5511
5590 5589 5590 5591 5592 5593 5595 5596 5597 5597 5597 5597 5598 5597 5596 5595 5594 5591 5587 5584 5580 5576 5570 5562 5554 5546 5535 5527 5520 5515 5507 5500 5494 5490 5487 5486 5483 5484 5485 5489 5495 5503 5512
5586 5585 5585 5586 5586 5587 5589 5591 5592 5593 5594 5594 5593 5592 5591 5589 5587 5585 5581 5579 5575 5572 5566 5560 5554 5546 5538 5529 5523 5517 5510 5504 5498 5494 5492 5490 5491 5491 5491 5494 5500 5508 5518
5584 5582 5582 5582 5583 5583 5585 5587 5588 5588 5589 5589 5588 5586 5585 5583 5582 5580 5577 5574 5570 5566 5562 5558 5552 5548 5540 5533 5526 5520 5514 5509 5504 5500 5498 5498 5497 5496 5497 5502 5506 5511 5519
5583 5582 5582 5581 5583 5584 5583 5584 5584 5585 5584 5583 5582 5581 5579 5578 5576 5574 5572 5569 5566 5563 5560 5556 5552 5548 5541 5536 5530 5523 5518 5513 5509 5505 5503 5502 5500 5500 5502 5506 5510 5516 5523
5583 5582 5582 5582 5582 5582 5581 5581 5580 5580 5579 5578 5576 5575 5574 5572 5570 5569 5567 5564 5562 5559 5556 5553 5550 5546 5543 5538 5533 5528 5522 5518 5515 5511 5508 5505 5503 5505 5508 5512 5516 5522 5530
5582 5582 5581 5580 5580 5579 5578 5577 5575 5574 5573 5572 5571 5570 5567 5565 5564 5562 5561 5559 5557 5555 5553 5551 5549 5546 5543 5539 5535 5532 5527 5523 5519 5517 5514 5511 5509 5511 5514 5518 5522 5528 5536
5581 5579 5578 5577 5576 5575 5574 5572 5571 5569 5567 5566 5565 5563 5562 5560 5557 5556 5555 5554 5552 5550 5548 5547 5545 5544 5543 5540 5537 5534 5531 5528 5525 5522 5519 5519 5518 5520 5521 5526 5530 5536 5540
5577 5576 5574 5573 5572 5570 5569 5567 5565 5563 5561 5559 5558 5557 5555 5553 5551 5549 5548 5547 5547 5546 5544 5542 5541 5540 5540 5539 5537 5535 5533 5529 5529 5526 5525 5523 5524 5525 5528 5532 5534 5539 5543
5574 5572 5571 5569 5567 5565 5563 5561 5558 5556 5554 5552 5550 5548 5547 5545 5544 5542 5540 5539 5539 5539 5538 5537 5536 5535 5535 5537 5537 5534 5535 5532 5530 5529 5528 5527 5527 5529 5531 5533 5537 5543 5545
5570 5568 5566 5563 5561 5559 5556 5553 5551 5548 5546 5543 5541 5539 5538 5536 5534 5532 5531 5530 5530 5530 5530 5531 5531 5530 5530 5530 5532 5533 5532 5533 5532 5530 5530 5531 5531 5531 5532 5534 5535 5539 5544